This is the latest recevied weather packets stored in our database for station/object KE5QKR. If no packets are shown the sender has not sent any weather packets the latest 10 day(s).
| Time | Temp. | Humidity | Pressure | Rain* | Wind** | Luminosity | Snow |
|---|---|---|---|---|---|---|---|
| 1777682416 | 12.22° C | 99% | 1011 hPa | 0 mm | - | 0 W/m² | - |
| 1777682114 | 12.22° C | 99% | 1010.5 hPa | 0 mm | - | 0 W/m² | - |
| 1777681810 | 12.22° C | 99% | 1010.1 hPa | 0 mm | - | 1 W/m² | - |
| 1777681507 | 12.22° C | 99% | 1010.4 hPa | 0 mm | - | 2 W/m² | - |
| 1777681204 | 12.22° C | 99% | 1010.1 hPa | 0 mm | - | 2 W/m² | - |
| 1777680901 | 12.22° C | 99% | 1010.3 hPa | 0 mm | - | 2 W/m² | - |
| 1777680599 | 12.22° C | 99% | 1010.7 hPa | 0 mm | - | 3 W/m² | - |
| 1777680297 | 12.22° C | 99% | 1010.8 hPa | 0 mm | - | 3 W/m² | - |
| 1777679993 | 12.22° C | 99% | 1010.3 hPa | 0 mm | - | 2 W/m² | - |
| 1777679689 | 12.22° C | 99% | 1010.2 hPa | 0 mm | - | 5 W/m² | - |
| 1777679384 | 12.22° C | 99% | 1010.5 hPa | 0 mm | - | 3 W/m² | - |
| 1777679081 | 12.22° C | 99% | 1010.5 hPa | 0 mm | - | 3 W/m² | - |
| 1777678780 | 12.22° C | 99% | 1010.4 hPa | 0 mm | - | 4 W/m² | - |
| 1777678477 | 12.78° C | 99% | 1010.5 hPa | 0 mm | - | 5 W/m² | - |
| 1777678172 | 12.78° C | 99% | 1010.7 hPa | 0 mm | - | 5 W/m² | - |
| 1777677870 | 12.78° C | 99% | 1010.8 hPa | 0 mm | - | 5 W/m² | - |
| 1777677567 | 12.78° C | 99% | 1010.7 hPa | 0 mm | - | 6 W/m² | - |
| 1777677266 | 12.78° C | 99% | 1010.9 hPa | 0 mm | - | 6 W/m² | - |
| 1777676963 | 12.78° C | 99% | 1010.4 hPa | 0 mm | - | 7 W/m² | - |
| 1777676663 | 12.78° C | 99% | 1010.2 hPa | 0 mm | - | 14 W/m² | - |
| 1777676359 | 12.78° C | 99% | 1010.9 hPa | 0 mm | - | 13 W/m² | - |
| 1777676057 | 12.78° C | 99% | 1010.8 hPa | 0 mm | - | 7 W/m² | - |
| 1777675752 | 12.78° C | 99% | 1010.6 hPa | 0 mm | - | 10 W/m² | - |
| 1777675450 | 12.78° C | 99% | 1010.8 hPa | 0 mm | - | 11 W/m² | - |
| 1777675146 | 12.78° C | 99% | 1010.9 hPa | 0 mm | - | 24 W/m² | - |
* Rain latest hour (hover to see other rain measurements)
** Current wind speed in m/s (hover to see current wind gust speed)